Regional Weather Roundup
Issued by NWS Upton, NY

Current Version | Previous Version | Text Only | Print | Product List | Glossary On
Versions: 1 2 3 4 5 6 7 8 9 10 11 12 13 14 15 16 17 18 19 20 21 22 23 24 25 26 27 28 29 30 31 32 33 34 35 36 37 38 39 40 41 42 43 44 45 46 47 48 49 50
000
ASUS41 KOKX 280108
RWROKX

REGIONAL WEATHER ROUNDUP
NATIONAL WEATHER SERVICE NEW YORK NY
800 PM EST MON FEB 27 2017

NOTE: "FAIR" INDICATES FEW OR NO CLOUDS BELOW 12,000 FEET WITH NO
SIGNIFICANT WEATHER AND/OR OBSTRUCTIONS TO VISIBILITY.

NYZ071-072-176-178-NJZ106-104-280200-
NEW YORK CITY METRO AREA

CITY           SKY/WX    TMP DP  RH WIND       PRES   REMARKS
Central Park   CLOUDY    50  28  42 W5        30.41S
Wall St Helipt CLOUDY    49  32  52 W8        30.41S
LaGuardia APRT CLOUDY    52  28  39 SW8       30.39S
Kennedy INTL   MOCLDY    46  35  65 SW9       30.41S
Breezy Point     N/A     45 N/A N/A S5          N/A
Newark/Liberty MOCLDY    50  28  42 SW9       30.40R
Teterboro      CLOUDY    50  29  44 SW9       30.39R
$$

NYZ177-179-078>081-280200-
LONG ISLAND NEW YORK

CITY           SKY/WX    TMP DP  RH WIND       PRES   REMARKS
Jones Beach      N/A     43 N/A N/A SW8G14      N/A
Matinecock PT    N/A     48 N/A N/A SW8         N/A
Farmingdale    MOCLDY    45  37  73 SW8       30.41R
MacArthur/ISP  MOCLDY    44  38  79 SW10      30.40S
Shirley        PTCLDY    44  39  82 SW8       30.42S
Westhampton    CLEAR     44  37  76 SW13      30.43R
Southampton      N/A     45  41  87 W9        30.39S
Bridgehampton  NOT AVBL
East Hampton     N/A     43  37  79 SW8       30.41F
Montauk          N/A     45  38  76 SW8G17    30.42S
$$

NYZ052-065-067-280200-
HUDSON VALLEY

CITY           SKY/WX    TMP DP  RH WIND       PRES   REMARKS
White Plains   CLOUDY    41  32  70 CALM      30.37S
Newburgh       CLEAR     45  27  49 SW8       30.37S
Montgomery     CLEAR     40  25  55 S3        30.35S
Poughkeepsie   CLEAR     44  25  47 SW8       30.35F
Albany         MOCLDY    45  20  36 SW9       30.32R
$$

NJZ001-105-106-008-010-013-015-019>022-104-280200-
NEW JERSEY

CITY           SKY/WX    TMP DP  RH WIND       PRES   REMARKS
Newark/Liberty MOCLDY    50  28  42 SW9       30.40R
Teterboro      CLOUDY    50  29  44 SW9       30.39R
Caldwell       CLOUDY    49  28  44 VRB3      30.39S
Somerville     MOCLDY    47  32  56 CALM      30.38S
Linden         NOT AVBL
Sussex         CLOUDY    45  29  53 SW3       30.36F
Andover          N/A     44  30  57 CALM      30.37F
Trenton        CLOUDY    49  31  49 CALM      30.39F
Millville      CLOUDY    48  37  65 S6        30.40F
Atlantic City  CLOUDY    49  33  54 S7        30.41F
Wrightstown    PTCLDY    47  30  52 SW5       30.38S
Toms River     CLOUDY    45  35  68 S6        30.42S
Belmar         PTCLDY    46  34  62 S5        30.41F
$$

PAZ047>061-062-071-280200-
EASTERN PENNSYLVANIA

CITY           SKY/WX    TMP DP  RH WIND       PRES   REMARKS
Philadelphia   MOCLDY    49  29  46 SW3       30.40F
Allentown      MOCLDY    41  32  70 SW5       30.38F
Scranton       CLOUDY    44  31  60 S7        30.33F
$$

CTZ002-004>006-009-010-012-RIZ004-006-007-MAZ004-011-015-280200-
SOUTHERN NEW ENGLAND
 IN CT

CITY           SKY/WX    TMP DP  RH WIND       PRES   REMARKS
Bradley INTL   CLEAR     44  27  51 S10       30.36R
Hartford       CLEAR     43  32  65 S9        30.37S
Danbury        CLEAR     38  28  67 CALM      30.38S
Wtrbury/Oxford CLEAR     41  28  60 SW3       30.37S
Bridgeport     CLEAR     44  35  70 SW5       30.39S
Meriden        CLEAR     44  32  62 S6        30.39R
New Haven      CLEAR     43  36  76 SW6       30.39F
Chester          N/A     41  36  81 VRB7      30.38F
Groton         CLEAR     43  36  76 W7        30.40S
Wilimantic     CLEAR     44  31  60 SW5       30.38S

 IN RI

CITY           SKY/WX    TMP DP  RH WIND       PRES   REMARKS
Providence     CLEAR     42  30  62 SW10      30.40R
Block Island   CLEAR     43  38  82 SW14      30.42R
Westerly       CLEAR     44  35  70 W6        30.41S
 IN MA

CITY           SKY/WX    TMP DP  RH WIND       PRES   REMARKS
Boston         CLEAR     46  25  43 SW16      30.35R
Worcester      CLEAR     40  22  48 SW12      30.32R WCI  33
Westfield      CLEAR     44  23  43 S9        30.34R
Provincetown   CLEAR     40  35  83 SW14      30.39R WCI  32
Nantucket      CLEAR     41  35  79 SW13      30.44R
$$

ANZ330-335-338-340-345-350-353-355-280200-
COASTAL MARINE OBSERVATIONS


STATION/POSITION TIME  SKY/WX   TEMP    WIND        PRES    VSBY  WAVE
                                AIR SEA DIR/SP/G                  HT/PER
                 (UTC)          (F)     (DEG/KT/KT) (MB)    (MI)  (FT/S)
NY HARB ENTRANCE 2350            45 43  210/ 14/ 16 1029.9          4/ 4
20 S FIRE ISLAND 2350            46 43  220/ 16/ 19 1029.8          3/ 4
GREAT SOUTH BAY  NOT AVBL
23 SSW MONTAUK P 2350            47 46              1030.0          4/ 5
15 E BARNEGAT LI 0030               43                N/A           2/ 8
HUDSON CANYON    2350               47              1030.9          3/ 9
KINGS POINT      0030            50 41              1029.1
EXECUTION ROCKS  NOT AVBL
CENTRAL LI SOUND 0030            43     220/ 12/ 14   N/A           2/ 4
EASTERN LI SOUND NOT AVBL
ROBBINS REEF     0036            51     220/  8/  9 1029.7
$$


>>>>>>>>>>>>>>>>>>>>>>>>>>>> KEY <<<<<<<<<<<<<<<<<<<<<<<<<<<
>                                                          <
>     SKY/WX - Sky Condition/Present Weather               <
>     TMP    - Temperature in Fahrenheit                   <
>     DP     - Dew Point in Fahrenheit                     <
>     RH     - Relative Humidity in Percent                <
>     WIND   - Direction (from) and Speed in MPH           <
>     PRES   - Mean Sea Level Pressure (inches of Hg)      <
>     WCI    - Wind Chill Index                            <
>     VSB    - VISIBILITY IN MILES                         <
>     HX     - HEAT INDEX                                  <
>     TC     - TEMPERATURE IN CELSIUS                      <
>     VRB    - VARIABLE WIND DIRECTION                     <
>                                                          <
>>>>>>>>>>>>>>>>>>>>>>>>>>>> KEY <<<<<<<<<<<<<<<<<<<<<<<<<<<



USA.gov is the U.S. government's official web portal to all federal, state and local government web resources and services.